This is the latest recevied weather packets stored in our database for station/object KB1MS. If no packets are shown the sender has not sent any weather packets the latest 10 day(s).
| Time | Temp. | Humidity | Pressure | Rain* | Wind** | Luminosity | Snow |
|---|---|---|---|---|---|---|---|
| 1788578804 | 20° C | 72% | 1008.7 hPa | 0 mm | - | 0 W/m² | - |
| 1788578504 | 20° C | 72% | 1008.6 hPa | 0 mm | - | 0 W/m² | - |
| 1788578200 | 20° C | 72% | 1008.8 hPa | 0 mm | - | 0 W/m² | - |
| 1788577895 | 19.44° C | 72% | 1008.9 hPa | 0 mm | - | 0 W/m² | - |
| 1788577590 | 20° C | 73% | 1008.9 hPa | 0 mm | - | 0 W/m² | - |
| 1788577286 | 20° C | 72% | 1008.8 hPa | 0 mm | - | 0 W/m² | - |
| 1788576986 | 20° C | 72% | 1008.7 hPa | 0 mm | - | 0 W/m² | - |
| 1788576682 | 20° C | 72% | 1008.6 hPa | 0 mm | - | 0 W/m² | - |
| 1788576378 | 20° C | 72% | 1008.7 hPa | 0 mm | - | 0 W/m² | - |
| 1788576073 | 20° C | 72% | 1008.8 hPa | 0 mm | - | 0 W/m² | - |
| 1788575768 | 20° C | 72% | 1008.7 hPa | 0 mm | - | 0 W/m² | - |
| 1788575468 | 20° C | 72% | 1008.7 hPa | 0 mm | - | 0 W/m² | - |
| 1788575167 | 20° C | 72% | 1008.8 hPa | 0 mm | - | 0 W/m² | - |
| 1788574863 | 20.56° C | 72% | 1009 hPa | 0 mm | - | 0 W/m² | - |
| 1788574562 | 20.56° C | 70% | 1008.9 hPa | 0 mm | - | 0 W/m² | - |
| 1788574258 | 21.11° C | 69% | 1009 hPa | 0 mm | - | 0 W/m² | - |
| 1788573957 | 21.11° C | 69% | 1008.9 hPa | 0 mm | - | 0 W/m² | - |
| 1788573653 | 20.56° C | 70% | 1008.7 hPa | 0 mm | - | 0 W/m² | - |
| 1788573350 | 21.11° C | 69% | 1009 hPa | 0 mm | - | 0 W/m² | - |
| 1788573046 | 21.11° C | 68% | 1008.9 hPa | 0 mm | - | 0 W/m² | - |
| 1788572745 | 21.11° C | 68% | 1009.1 hPa | 0 mm | - | 0 W/m² | - |
| 1788572457 | 21.11° C | 69% | 1009.1 hPa | 0 mm | - | 0 W/m² | - |
| 1788572138 | 21.11° C | 69% | 1009.1 hPa | 0 mm | - | 0 W/m² | - |
| 1788571834 | 21.11° C | 69% | 1009.4 hPa | 0 mm | - | 0 W/m² | - |
| 1788571533 | 21.67° C | 68% | 1009.4 hPa | 0 mm | - | 0 W/m² | - |
* Rain latest hour (hover to see other rain measurements)
** Current wind speed in m/s (hover to see current wind gust speed)